IW3HBX-13 Weather Reports


Display with metric or nautical units.
time (UTC)temp
F
wind
direction
speed
MPH
gust
MPH
rain 1hr
in
rain 24hr
in
rain mn
in
humidity
%
barometer
mb
20260503184809 65 117 1.0 2.0 0.00 0.00 0.00 62 1016.9
20260503184207 65 105 2.0 3.0 0.00 0.00 0.00 61 1016.8
20260503183607 65 104 3.0 4.0 0.00 0.00 0.00 61 1016.6
20260503183007 65 114 2.0 2.0 0.00 0.00 0.00 61 1016.7
20260503181807 66 90 1.0 2.0 0.00 0.00 0.00 59 1016.6
20260503181207 66 81 2.0 2.0 0.00 0.00 0.00 59 1016.7
20260503180607 67 108 1.0 2.0 0.00 0.00 0.00 59 1016.7
20260503174809 68 106 3.0 4.0 0.00 0.00 0.00 56 1016.6
20260503174207 68 55 1.0 2.0 0.00 0.00 0.00 55 1016.6
20260503173607 69 108 3.0 4.0 0.00 0.00 0.00 54 1016.6
20260503173007 69 99 2.0 3.0 0.00 0.00 0.00 53 1016.5
20260503171810 70 56 2.0 5.0 0.00 0.00 0.00 52 1016.5
20260503171207 71 69 2.0 2.0 0.00 0.00 0.00 50 1016.5
20260503170607 71 82 3.0 4.0 0.00 0.00 0.00 48 1016.6
20260503150608 76 113 4.0 6.0 0.00 0.00 0.00 43 1017.3
20260503131207 78 134 4.0 7.0 0.00 0.00 0.00 40 1018.1
20260503130607 77 120 4.0 6.0 0.00 0.00 0.00 40 1018.0
20260503110610 78 145 2.0 3.0 0.00 0.00 0.00 38 1018.8
20260503081207 69 54 1.0 2.0 0.00 0.00 0.00 52 1019.8
20260503080607 70 60 2.0 3.0 0.00 0.00 0.00 55 1019.9
20260503072407 68 51 1.0 2.0 0.00 0.00 0.00 58 1020.0
20260503071810 67 60 1.0 1.0 0.00 0.00 0.00 59 1020.0
20260503071207 66 49 0.0 2.0 0.00 0.00 0.00 60 1020.0
20260503070607 66 27 1.0 2.0 0.00 0.00 0.00 60 1020.0
20260503054807 60 61 0.0 1.0 0.00 0.00 0.00 64 1019.8
20260503054207 61 63 1.0 2.0 0.00 0.00 0.00 65 1019.9
20260503053610 60 53 2.0 3.0 0.00 0.00 0.00 65 1019.8
20260503053007 60 67 1.0 3.0 0.00 0.00 0.00 67 1019.9
20260503052406 59 62 0.0 0.0 0.00 0.00 0.00 68 1019.8
20260503051808 58 69 1.0 2.0 0.00 0.00 0.00 68 1019.9
20260503051207 58 68 2.0 2.0 0.00 0.00 0.00 68 1019.9
20260503050607 58 73 1.0 2.0 0.00 0.00 0.00 69 1019.9
20260503045410 56 76 0.0 2.0 0.00 0.00 0.00 72 1019.9
20260503044807 55 72 1.0 2.0 0.00 0.00 0.00 73 1019.9
20260503044207 55 72 0.0 2.0 0.00 0.00 0.00 74 1019.8
20260503043608 55 72 0.0 0.0 0.00 0.00 0.00 74 1019.9
20260503043007 54 72 1.0 2.0 0.00 0.00 0.00 75 1019.9
20260503042407 53 69 0.0 0.0 0.00 0.00 0.00 78 1019.9
20260503041806 53 69 0.0 0.0 0.00 0.00 0.00 78 1019.9
20260503041209 53 69 0.0 0.0 0.00 0.00 0.00 79 1019.9
20260503040608 53 69 0.0 0.0 0.00 0.00 0.00 78 1019.8
20260503035409 53 69 0.0 0.0 0.00 0.00 0.00 78 1019.8
20260503034807 53 69 0.0 0.0 0.00 0.00 0.00 78 1019.8
20260503034207 53 69 0.0 2.0 0.00 0.00 0.00 78 1019.7
20260503033607 53 69 1.0 2.0 0.00 0.00 0.00 78 1019.7
20260503033007 53 66 1.0 2.0 0.00 0.00 0.00 78 1019.8
20260503032409 53 66 1.0 2.0 0.00 0.00 0.00 78 1019.8
20260503031807 53 66 1.0 2.0 0.00 0.00 0.00 78 1019.9
20260503031207 53 66 0.0 0.0 0.00 0.00 0.00 78 1019.9
20260503030611 53 66 1.0 2.0 0.00 0.00 0.00 77 1019.8
20260503025407 53 66 0.0 2.0 0.00 0.00 0.00 78 1019.9
20260503024808 53 66 0.0 1.0 0.00 0.00 0.00 77 1020.0
20260503024211 53 66 0.0 0.0 0.00 0.00 0.00 77 1020.0
20260503023607 53 66 0.0 0.0 0.00 0.00 0.00 76 1020.0
20260503023007 54 66 0.0 2.0 0.00 0.00 0.00 75 1020.0
20260503022410 54 66 0.0 0.0 0.00 0.00 0.00 75 1020.0
20260503021808 54 66 1.0 2.0 0.00 0.00 0.00 74 1020.0
20260503021207 54 66 1.0 2.0 0.00 0.00 0.00 74 1020.0
20260503020609 54 66 0.0 1.0 0.00 0.00 0.00 73 1020.1
20260503015409 54 66 1.0 2.0 0.00 0.00 0.00 73 1019.9
20260503014808 54 264 0.0 0.0 0.00 0.00 0.00 74 1020.0
20260503014207 54 228 0.0 0.0 0.00 0.00 0.00 74 1019.9
20260503013608 54 225 0.0 0.0 0.00 0.00 0.00 74 1020.0
20260503013007 54 225 0.0 0.0 0.00 0.00 0.00 74 1020.1
20260503012411 54 225 0.0 0.0 0.00 0.00 0.00 74 1020.0
20260503011807 55 225 0.0 0.0 0.00 0.00 0.00 72 1020.0
20260503011207 55 225 0.0 0.0 0.00 0.00 0.00 69 1020.0
20260503010607 55 225 1.0 2.0 0.00 0.00 0.00 70 1020.1
20260503005407 55 225 0.0 0.0 0.00 0.00 0.00 72 1020.2
20260503004807 55 225 0.0 0.0 0.00 0.00 0.00 72 1020.1
20260503004207 55 225 0.0 0.0 0.00 0.00 0.00 72 1020.2
20260503003611 55 225 0.0 0.0 0.00 0.00 0.00 71 1020.2
20260503003007 55 225 0.0 0.0 0.00 0.00 0.00 70 1020.3
20260503002410 54 225 0.0 0.0 0.00 0.00 0.00 71 1020.3
20260503001807 55 225 0.0 0.0 0.00 0.00 0.00 71 1020.4
20260503001207 55 225 0.0 0.0 0.00 0.00 0.00 68 1020.5
20260503000610 55 225 0.0 0.0 0.00 0.00 0.00 69 1020.5
20260502235408 56 225 0.0 0.0 0.00 0.00 0.00 66 1020.5
20260502234807 56 225 0.0 0.0 0.00 0.00 0.00 67 1020.5
20260502234207 55 225 0.0 0.0 0.00 0.00 0.00 68 1020.7
20260502233607 56 225 0.0 0.0 0.00 0.00 0.00 68 1020.7
20260502233007 56 225 0.0 0.0 0.00 0.00 0.00 68 1020.8
20260502232407 57 225 0.0 0.0 0.00 0.00 0.00 67 1020.7
20260502231807 57 225 0.0 0.0 0.00 0.00 0.00 66 1020.8
20260502231211 57 225 0.0 0.0 0.00 0.00 0.00 66 1020.8
20260502230608 58 225 0.0 0.0 0.00 0.00 0.00 65 1020.9
20260502225407 59 225 0.0 0.0 0.00 0.00 0.00 63 1020.9
20260502224808 59 225 0.0 0.0 0.00 0.00 0.00 63 1020.9
20260502224207 59 225 0.0 0.0 0.00 0.00 0.00 62 1020.9
20260502223607 59 225 0.0 0.0 0.00 0.00 0.00 62 1020.9
20260502223011 60 225 0.0 0.0 0.00 0.00 0.00 61 1021.0
20260502222411 61 225 0.0 0.0 0.00 0.00 0.00 59 1021.0
20260502221807 61 225 0.0 0.0 0.00 0.00 0.00 58 1021.1
20260502221209 61 225 0.0 0.0 0.00 0.00 0.00 59 1021.1
20260502220609 61 225 0.0 0.0 0.00 0.00 0.00 58 1021.0
20260502215407 62 225 0.0 1.0 0.00 0.00 0.00 56 1020.9
20260502214807 62 225 0.0 1.0 0.00 0.00 0.00 55 1020.9
20260502214207 62 225 0.0 1.0 0.00 0.00 0.00 55 1020.9
20260502213609 63 225 2.0 3.0 0.00 0.00 0.00 54 1020.9
20260502213008 63 225 2.0 2.0 0.00 0.00 0.00 53 1021.0
20260502212407 63 225 2.0 2.0 0.00 0.00 0.00 53 1021.0
20260502211809 63 225 1.0 2.0 0.00 0.00 0.00 53 1020.9
20260502211209 62 225 2.0 2.0 0.00 0.00 0.00 54 1021.0
20260502210607 62 225 0.0 1.0 0.00 0.00 0.00 55 1021.0
20260502205407 62 225 0.0 0.0 0.00 0.00 0.00 56 1021.0
20260502204810 62 225 0.0 0.0 0.00 0.00 0.00 55 1020.9
20260502204207 62 225 0.0 0.0 0.00 0.00 0.00 56 1020.9
20260502203607 62 225 0.0 0.0 0.00 0.00 0.00 56 1020.9
20260502203009 62 225 0.0 0.0 0.00 0.00 0.00 55 1021.0
20260502202407 63 228 0.0 0.0 0.00 0.00 0.00 56 1021.0
20260502201807 63 225 0.0 0.0 0.00 0.00 0.00 54 1021.1
20260502201208 63 225 0.0 0.0 0.00 0.00 0.00 55 1021.1
20260502200608 63 225 0.0 0.0 0.00 0.00 0.00 54 1021.1
20260502195409 63 225 0.0 0.0 0.00 0.00 0.00 54 1021.1
20260502194808 64 225 0.0 0.0 0.00 0.00 0.00 54 1021.0
20260502194207 64 225 0.0 0.0 0.00 0.00 0.00 54 1021.0
20260502193607 64 225 0.0 0.0 0.00 0.00 0.00 53 1021.0
20260502193008 64 225 0.0 0.0 0.00 0.00 0.00 53 1021.1
20260502192407 65 225 0.0 0.0 0.00 0.00 0.00 52 1020.9
20260502191807 65 225 0.0 0.0 0.00 0.00 0.00 52 1021.0
20260502191211 66 225 0.0 0.0 0.00 0.00 0.00 51 1021.0
20260502190607 66 225 0.0 0.0 0.00 0.00 0.00 50 1020.9